NC4J Weather Reports


Display with metric or nautical units.
time (UTC)temp
F
wind
direction
speed
MPH
gust
MPH
rain 1hr
in
rain 24hr
in
rain mn
in
humidity
%
barometer
mb
20260503192438 62 8 2.0 2.0 0.00 0.00 0.00 34 1018.2
20260503191933 62 321 6.0 8.0 0.00 0.00 0.00 33 1018.3
20260503191431 62 318 5.0 6.0 0.00 0.00 0.00 36 1018.4
20260503190927 61 355 1.0 1.0 0.00 0.00 0.00 34 1018.3
20260503190425 61 18 1.0 1.0 0.00 0.00 0.00 34 1018.6
20260503185921 60 358 2.0 2.0 0.00 0.00 0.00 33 1018.6
20260503185418 61 304 3.0 4.0 0.00 0.00 0.00 36 1018.6
20260503184917 61 35 1.0 1.0 0.00 0.00 0.00 35 1018.7
20260503184414 60 7 2.0 2.0 0.00 0.00 0.00 35 1018.7
20260503183910 60 72 0.0 0.0 0.00 0.00 0.00 33 1018.8
20260503183407 60 359 2.0 2.0 0.00 0.00 0.00 33 1018.7
20260503182904 59 65 3.0 3.0 0.00 0.00 0.00 34 1019.0
20260503182403 59 32 2.0 2.0 0.00 0.00 0.00 36 1019.1
20260503181859 59 91 1.0 1.0 0.00 0.00 0.00 37 1018.9
20260503181356 59 86 1.0 1.0 0.00 0.00 0.00 38 1019.3
20260503180853 59 121 3.0 3.0 0.00 0.00 0.00 35 1019.4
20260503180351 59 28 1.0 1.0 0.00 0.00 0.00 36 1019.1
20260503175847 58 142 1.0 1.0 0.00 0.00 0.00 37 1019.1
20260503175345 58 344 2.0 2.0 0.00 0.00 0.00 37 1019.5
20260503174841 58 68 2.0 3.0 0.00 0.00 0.00 35 1019.5
20260503174340 58 341 2.0 3.0 0.00 0.00 0.00 36 1019.4
20260503173839 58 218 2.0 2.0 0.00 0.00 0.00 35 1019.6
20260503173336 57 137 1.0 1.0 0.00 0.00 0.00 38 1019.5
20260503172833 57 122 2.0 2.0 0.00 0.00 0.00 38 1019.7
20260503172331 57 329 2.0 2.0 0.00 0.00 0.00 36 1019.6
20260503171832 57 309 2.0 2.0 0.00 0.00 0.00 37 1019.7
20260503171329 58 292 5.0 6.0 0.00 0.00 0.00 35 1020.0
20260503170826 58 94 4.0 4.0 0.00 0.00 0.00 35 1019.9
20260503170322 57 49 2.0 2.0 0.00 0.00 0.00 39 1019.8
20260503150715 50 3 0.0 0.0 0.00 0.00 0.00 48 1021.1
20260503150211 50 115 3.0 3.0 0.00 0.00 0.00 47 1021.2
20260503140135 48 333 3.0 3.0 0.00 0.00 0.00 53 1021.0
20260503131105 46 308 4.0 4.0 0.00 0.00 0.00 61 1020.9
20260503130602 45 291 3.0 4.0 0.00 0.00 0.00 64 1020.9
20260503110452 36 64 0.0 0.0 0.00 0.00 0.00 90 1019.9
20260503090344 39 112 1.0 1.0 0.00 0.00 0.00 81 1018.3
20260503081311 40 147 2.0 2.0 0.00 0.00 0.00 79 1017.8
20260503080807 40 114 1.0 1.0 0.00 0.00 0.00 79 1017.8
20260503080305 40 111 1.0 1.0 0.00 0.00 0.00 82 1018.0
20260503072741 41 118 1.0 1.0 0.00 0.00 0.00 76 1017.7
20260503072238 41 118 1.0 1.0 0.00 0.00 0.00 76 1017.4
20260503071734 41 117 0.0 0.0 0.00 0.00 0.00 77 1017.7
20260503071231 41 117 0.0 0.0 0.00 0.00 0.00 80 1017.6
20260503070728 41 117 0.0 0.0 0.00 0.00 0.00 77 1017.2
20260503070226 42 117 0.0 0.0 0.00 0.00 0.00 75 1017.4
20260503060151 42 101 1.0 1.0 0.00 0.00 0.00 74 1017.2
20260503054638 43 100 0.0 0.0 0.00 0.00 0.00 71 1017.4
20260503054135 43 100 1.0 1.0 0.00 0.00 0.00 69 1017.4
20260503053633 43 100 1.0 1.0 0.00 0.00 0.00 68 1017.3
20260503053131 44 100 0.0 0.0 0.00 0.00 0.00 68 1017.3
20260503052627 44 100 0.0 0.0 0.00 0.00 0.00 70 1017.1
20260503052124 45 100 0.0 0.0 0.00 0.00 0.00 64 1017.3
20260503051619 45 99 1.0 1.0 0.00 0.00 0.00 63 1017.3
20260503051117 46 99 1.0 1.0 0.00 0.00 0.00 62 1017.3
20260503050613 46 97 1.0 1.0 0.00 0.00 0.00 61 1017.3
20260503050110 47 79 1.0 1.0 0.00 0.00 0.00 59 1017.0
20260503045608 47 64 0.0 0.0 0.00 0.00 0.00 58 1017.2
20260503045105 48 64 0.0 0.0 0.00 0.00 0.00 57 1017.2
20260503044601 48 56 1.0 1.0 0.00 0.00 0.00 53 1017.6
20260503044059 48 45 1.0 2.0 0.00 0.00 0.00 53 1017.2
20260503043555 48 335 1.0 1.0 0.00 0.00 0.00 53 1017.2
20260503043052 48 23 1.0 1.0 0.00 0.00 0.00 53 1017.2
20260503042549 48 7 1.0 1.0 0.00 0.00 0.00 53 1017.1
20260503042045 47 351 0.0 0.0 0.00 0.00 0.00 54 1017.1
20260503041542 47 54 1.0 1.0 0.00 0.00 0.00 54 1016.8
20260503041040 48 49 1.0 1.0 0.00 0.00 0.00 54 1016.9
20260503040537 48 335 2.0 2.0 0.00 0.00 0.00 53 1016.8
20260503040034 47 16 1.0 1.0 0.00 0.00 0.00 54 1016.8
20260503035530 47 36 1.0 1.0 0.00 0.00 0.00 55 1016.6
20260503035029 47 30 1.0 1.0 0.00 0.00 0.00 57 1016.6
20260503034525 47 12 1.0 1.0 0.00 0.00 0.00 56 1016.8
20260503034022 47 50 0.0 0.0 0.00 0.00 0.00 56 1016.5
20260503033519 47 47 0.0 0.0 0.00 0.00 0.00 55 1016.7
20260503033018 47 24 0.0 0.0 0.00 0.00 0.00 55 1016.5
20260503032516 47 44 0.0 1.0 0.00 0.00 0.00 55 1016.5
20260503032013 47 47 1.0 1.0 0.00 0.00 0.00 56 1016.5
20260503031511 47 24 0.0 0.0 0.00 0.00 0.00 53 1016.6
20260503031008 48 26 1.0 1.0 0.00 0.00 0.00 54 1016.4
20260503030504 48 46 0.0 0.0 0.00 0.00 0.00 52 1016.3
20260503030001 48 55 1.0 1.0 0.00 0.00 0.00 51 1016.3
20260503025457 48 48 1.0 1.0 0.00 0.00 0.00 50 1016.4
20260503024955 49 24 0.0 0.0 0.00 0.00 0.00 51 1016.5
20260503024451 49 38 0.0 0.0 0.00 0.00 0.00 50 1016.4
20260503023949 49 39 0.0 0.0 0.00 0.00 0.00 49 1016.3
20260503023445 49 20 1.0 1.0 0.00 0.00 0.00 48 1016.3
20260503022942 50 13 0.0 0.0 0.00 0.00 0.00 48 1016.1
20260503022437 50 358 1.0 1.0 0.00 0.00 0.00 48 1016.2
20260503021934 50 326 1.0 1.0 0.00 0.00 0.00 47 1016.2
20260503021430 50 15 0.0 0.0 0.00 0.00 0.00 47 1016.1
20260503020927 50 8 1.0 1.0 0.00 0.00 0.00 48 1016.0
20260503020425 50 49 0.0 0.0 0.00 0.00 0.00 46 1016.0
20260503015921 50 350 1.0 1.0 0.00 0.00 0.00 46 1015.8
20260503015418 50 42 0.0 0.0 0.00 0.00 0.00 46 1015.6
20260503014914 51 42 1.0 1.0 0.00 0.00 0.00 45 1015.8
20260503014412 51 34 1.0 1.0 0.00 0.00 0.00 45 1015.5
20260503013909 51 12 1.0 1.0 0.00 0.00 0.00 45 1015.7
20260503013406 51 53 1.0 1.0 0.00 0.00 0.00 45 1015.8
20260503012903 51 3 1.0 1.0 0.00 0.00 0.00 44 1015.6
20260503012401 51 80 1.0 1.0 0.00 0.00 0.00 44 1015.4
20260503011857 51 348 4.0 4.0 0.00 0.00 0.00 43 1015.3
20260503011354 51 6 4.0 4.0 0.00 0.00 0.00 43 1015.3
20260503010851 51 6 2.0 1.0 0.00 0.00 0.00 43 1015.1
20260503010348 52 16 3.0 4.0 0.00 0.00 0.00 42 1015.3
20260503005845 52 21 1.0 2.0 0.00 0.00 0.00 43 1015.2
20260503005342 52 323 2.0 2.0 0.00 0.00 0.00 43 1015.0
20260503004838 52 65 0.0 0.0 0.00 0.00 0.00 43 1014.9
20260503004336 52 349 1.0 1.0 0.00 0.00 0.00 41 1014.9
20260503003833 53 34 0.0 0.0 0.00 0.00 0.00 41 1014.8
20260503003330 53 297 6.0 8.0 0.00 0.00 0.00 41 1014.7
20260503002827 53 3 1.0 1.0 0.00 0.00 0.00 41 1014.7
20260503002324 53 4 1.0 1.0 0.00 0.00 0.00 39 1014.6
20260503001820 53 339 1.0 1.0 0.00 0.00 0.00 39 1014.7
20260503001316 53 318 2.0 3.0 0.00 0.00 0.00 39 1014.8
20260503000814 53 66 2.0 2.0 0.00 0.00 0.00 40 1014.4
20260503000312 54 359 3.0 3.0 0.00 0.00 0.00 38 1014.5
20260502235809 54 52 1.0 1.0 0.00 0.00 0.00 39 1014.2
20260502235306 54 56 1.0 1.0 0.00 0.00 0.00 38 1014.1
20260502234802 55 345 2.0 4.0 0.00 0.00 0.00 36 1014.0
20260502234259 55 3 2.0 2.0 0.00 0.00 0.00 36 1014.0
20260502233755 56 5 3.0 3.0 0.00 0.00 0.00 36 1013.8
20260502233253 56 357 3.0 3.0 0.00 0.00 0.00 35 1013.9
20260502232749 57 334 2.0 2.0 0.00 0.00 0.00 34 1013.7
20260502232245 57 357 2.0 2.0 0.00 0.00 0.00 34 1013.8
20260502231742 57 308 3.0 3.0 0.00 0.00 0.00 34 1013.4
20260502231240 57 339 3.0 3.0 0.00 0.00 0.00 35 1013.6
20260502230739 56 23 1.0 1.0 0.00 0.00 0.00 35 1013.6
20260502230236 56 22 1.0 1.0 0.00 0.00 0.00 34 1013.5
20260502225732 56 307 2.0 3.0 0.00 0.00 0.00 35 1013.6
20260502225229 56 342 3.0 4.0 0.00 0.00 0.00 34 1013.6
20260502224726 56 56 4.0 6.0 0.00 0.00 0.00 33 1013.7
20260502224222 56 355 4.0 4.0 0.00 0.00 0.00 38 1013.6
20260502223720 57 311 7.0 9.0 0.00 0.00 0.00 34 1013.8
20260502223218 57 330 4.0 4.0 0.00 0.00 0.00 34 1013.7
20260502222715 57 43 2.0 2.0 0.00 0.00 0.00 34 1013.6
20260502222212 57 306 2.0 3.0 0.00 0.00 0.00 33 1013.4
20260502221708 57 42 2.0 4.0 0.00 0.00 0.00 35 1013.7
20260502221205 59 12 5.0 8.0 0.00 0.00 0.00 33 1013.4
20260502220700 58 350 2.0 2.0 0.00 0.00 0.00 35 1013.4
20260502220157 58 56 3.0 3.0 0.00 0.00 0.00 33 1013.3
20260502215654 59 351 4.0 6.0 0.00 0.00 0.00 33 1012.9
20260502215151 60 345 4.0 6.0 0.00 0.00 0.00 33 1013.1
20260502214648 59 333 2.0 2.0 0.00 0.00 0.00 33 1012.9
20260502214145 58 281 9.0 10.0 0.00 0.00 0.00 35 1012.8
20260502213643 57 332 4.0 4.0 0.00 0.00 0.00 35 1012.8
20260502213140 56 52 4.0 6.0 0.00 0.00 0.00 35 1012.6
20260502212639 56 32 1.0 1.0 0.00 0.00 0.00 36 1012.8
20260502212137 57 55 2.0 3.0 0.00 0.00 0.00 36 1012.9
20260502211632 57 358 2.0 3.0 0.00 0.00 0.00 33 1012.8
20260502211129 58 109 2.0 3.0 0.00 0.00 0.00 32 1012.6
20260502210627 58 311 6.0 7.0 0.00 0.00 0.00 39 1012.8
20260502210124 58 18 2.0 2.0 0.00 0.00 0.00 32 1012.5
20260502205620 59 23 4.0 4.0 0.00 0.00 0.00 33 1012.5
20260502205117 59 8 3.0 4.0 0.00 0.00 0.00 32 1012.5
20260502204614 59 308 5.0 7.0 0.00 0.00 0.00 33 1012.8
20260502204111 60 306 6.0 7.0 0.00 0.00 0.00 32 1012.8
20260502203609 59 120 2.0 2.0 0.00 0.00 0.00 33 1012.2
20260502203106 59 4 3.0 4.0 0.00 0.00 0.00 33 1012.6
20260502202601 59 21 2.0 2.0 0.00 0.00 0.00 33 1012.4
20260502202100 60 29 3.0 6.0 0.00 0.00 0.00 31 1012.4
20260502201555 59 26 2.0 2.0 0.00 0.00 0.00 32 1012.6
20260502201052 59 6 3.0 3.0 0.00 0.00 0.00 37 1012.6
20260502200548 60 308 9.0 11.0 0.00 0.00 0.00 31 1012.5
20260502200046 60 32 1.0 1.0 0.00 0.00 0.00 32 1012.5
20260502195543 60 354 5.0 6.0 0.00 0.00 0.00 35 1012.5
20260502195039 60 332 2.0 3.0 0.00 0.00 0.00 30 1012.5
20260502194536 60 325 4.0 6.0 0.00 0.00 0.00 33 1012.5
20260502194032 60 75 4.0 6.0 0.00 0.00 0.00 33 1012.9
20260502193530 60 309 2.0 3.0 0.00 0.00 0.00 32 1012.8
20260502193026 59 317 2.0 2.0 0.00 0.00 0.00 33 1012.8